Location: Gombori
(14.9797°N, 2.9419°W)
Time: 21:53:41
(UTC+00:00)

METEOR 2-17 DEB - Pass Details

Date: 05 June 2022
Orbit: 896 x 935 km, 82.5° (Epoch: 02 July)

Event Time Altitude Azimuth Distance (km) Brightness Sun altitude
Rises 20:50:26 0° 358° (N) 3,503 ? -28.3°
Reaches altitude 10° 20:52:54 10° 1° (N) 2,562 ? -28.8°
Enters shadow 20:57:41 59° 25° (NNE) 1,023 ? -29.7°
